Swansboro, NC

12:56 PM EST on February 14, 2016 (GMT -0500)
Bogue McAlf

Weather History for KNJM - March, 2013

Change the Weather History Date:

Friday, March 29, 2013

  Actual Average (KNKT) Record (KNKT)
Temperature  
Mean Temperature 46 °F -  
Max Temperature 57 °F 66 °F 84 °F (2012)
Min Temperature 34 °F 45 °F 30 °F (2011)
Degree Days  
Heating Degree Days 20    
Moisture  
Dew Point 30 °F    
Average Humidity 53    
Maximum Humidity 70    
Minimum Humidity 27    
Precipitation  
Precipitation 0.00 in - - ()
Sea Level Pressure  
Sea Level Pressure 30.29 in    
Wind  
Wind Speed 7 mph (WNW)    
Max Wind Speed 16 mph    
Max Gust Speed 22 mph    
Visibility 10 miles    
Events      
Averages and records for this station are not official NWS values.
T = Trace of Precipitation, MM = Missing Value Source: NWS Daily Summary

Daily Weather History Graph

Daily Weather History Graph

Search for Another Location

Airport or City:

Trip Planner

Search our weather history database for the weather conditions in past years. The results will help you decide how hot, cold, wet, or windy it might be!

Date:

Astronomy

Mar. 29, 2013 Rise Set
Actual Time 6:58 AM EDT 7:27 PM EDT
Civil Twilight 6:33 AM EDT 7:52 PM EDT
Nautical Twilight 6:03 AM EDT 8:22 PM EDT
Astronomical Twilight 5:33 AM EDT 8:52 PM EDT
Moon 10:16 PM EDT (3/29) 8:13 AM EDT (3/29)
Length of Visible Light 13h 18m
Length of Day
12h 28m
Waning Gibbous, 93% of the Moon is Illuminated
Mar 29
Waning Gibbous
Apr 3
Last Quarter
Apr 10
New
Apr 18
First Quarter
Apr 25
Full

Hourly Weather History & Observations

Time (EDT) Temp. Windchill Dew Point Humidity Pressure Visibility Wind Dir Wind Speed Gust Speed Precip Events Conditions
12:57 AM 41.0 °F 38.0 °F 27.0 °F 57% 30.29 in 10.0 mi NNW 4.6 mph - N/A   Clear
1:57 AM 39.9 °F 35.8 °F 26.1 °F 58% 30.30 in 10.0 mi NNW 5.8 mph - N/A   Clear
2:57 AM 37.9 °F 35.5 °F 26.1 °F 62% 30.30 in 10.0 mi NNW 3.5 mph - N/A   Clear
3:57 AM 37.0 °F 33.3 °F 26.1 °F 65% 30.29 in 10.0 mi NNW 4.6 mph - N/A   Clear
4:57 AM 34.0 °F 29.8 °F 25.0 °F 70% 30.29 in 10.0 mi NNW 4.6 mph - N/A   Clear
5:57 AM 36.0 °F 32.1 °F 25.0 °F 64% 30.30 in 10.0 mi NNW 4.6 mph - N/A   Clear
6:57 AM 34.0 °F 29.8 °F 25.0 °F 70% 30.32 in 10.0 mi North 4.6 mph - N/A   Clear
7:57 AM 37.9 °F 34.4 °F 27.0 °F 65% 30.34 in 10.0 mi NNW 4.6 mph - N/A   Clear
8:57 AM 45.0 °F 42.6 °F 26.1 °F 48% 30.35 in 10.0 mi North 4.6 mph - N/A   Clear
9:57 AM 51.1 °F - 23.0 °F 33% 30.34 in 10.0 mi North 6.9 mph - N/A   Clear
10:57 AM 53.1 °F - 24.1 °F 32% 30.34 in 10.0 mi Variable 5.8 mph - N/A   Clear
11:57 AM 55.0 °F - 24.1 °F 30% 30.32 in 10.0 mi NW 9.2 mph - N/A   Clear
12:57 PM 55.9 °F - 24.1 °F 29% 30.30 in 10.0 mi West 8.1 mph - N/A   Clear
1:57 PM 57.9 °F - 24.1 °F 27% 30.27 in 10.0 mi West 9.2 mph 16.1 mph N/A   Clear
2:57 PM 55.0 °F - 30.9 °F 40% 30.25 in 10.0 mi SW 12.7 mph 20.7 mph N/A   Clear
3:57 PM 53.1 °F - 32.0 °F 45% 30.24 in 10.0 mi SSW 16.1 mph 21.9 mph N/A   Clear
4:57 PM 54.0 °F - 33.1 °F 45% 30.23 in 10.0 mi SSW 12.7 mph - N/A   Clear
5:57 PM 53.1 °F - 35.1 °F 50% 30.24 in 10.0 mi SW 15.0 mph 20.7 mph N/A   Clear
6:57 PM 51.1 °F - 35.1 °F 54% 30.24 in 10.0 mi SW 10.4 mph 16.1 mph N/A   Clear
7:57 PM 50.0 °F - 36.0 °F 59% 30.25 in 10.0 mi SW 8.1 mph - N/A   Clear
8:57 PM 51.1 °F - 37.9 °F 61% 30.26 in 10.0 mi SW 10.4 mph - N/A   Clear
9:57 PM 50.0 °F - 39.0 °F 66% 30.27 in 10.0 mi SW 8.1 mph - N/A   Clear
10:57 PM 50.0 °F - 39.9 °F 68% 30.27 in 10.0 mi SW 6.9 mph - N/A   Clear
11:57 PM 50.0 °F - 39.9 °F 68% 30.27 in 10.0 mi SW 3.5 mph - N/A   Clear